Stations météo

Publicité
Figari, France (7780): Température de l'air & dewpoint: 16.07.2019 17:00:00 - 22.07.2019 17:00:00 (CEST)Figari, France (7780): Température de l'air 5cm: 16.07.2019 17:00:00 - 22.07.2019 17:00:00 (CEST)Figari, France (7780): Vitesse du vent & gusts: 16.07.2019 17:00:00 - 22.07.2019 17:00:00 (CEST)Figari, France (7780): Direction du vent: 16.07.2019 17:00:00 - 22.07.2019 17:00:00 (CEST)Figari, France (7780): reduced air pressure: 16.07.2019 17:00:00 - 22.07.2019 17:00:00 (CEST)Figari, France (7780): visibility: 16.07.2019 17:00:00 - 22.07.2019 17:00:00 (CEST)Figari, France (7780): Quantités de précipitations: 16.07.2019 17:00:00 - 22.07.2019 17:00:00 (CEST)
Date & Time tt [°C] td [°C] tt 5cm [°C] ff [km/h] ff [knt] fx [km/h] fx [knt] dd ppp [hPa] vv [km] rr [mm]
22.07.2019 17:00:00 33,9 14,4 42,2 16 9 27 15 SSW 1019,8 48 0,0
22.07.2019 16:00:00 33,6 11,4 47,4 16 9 29 16 SSW 1020,2 50 0,0
22.07.2019 15:00:00 33,4 14,0 46,1 18 10 30 16 SSW 1020,5 20 0,0
22.07.2019 14:00:00 32,5 16,8 43,9 16 9 28 15 SSW 1021,1 18 0,0
22.07.2019 13:00:00 31,2 18,2 42,7 16 8 29 16 SSW 1021,7 48 0,0
22.07.2019 12:00:00 30,8 20,4 43,5 19 10 29 15 SSW 1021,6 60 0,0
22.07.2019 11:00:00 30,5 19,5 39,2 14 8 23 12 SW 1021,5 59 0,0
22.07.2019 10:00:00 29,7 19,1 31,2 9 5 16 9 WSW 1021,6 54 0,0
22.07.2019 09:00:00 27,1 18,9 23,3 4 2 9 5 NNW 1021,8 44 0,0
22.07.2019 08:00:00 22,9 18,4 15,9 2 1 5 3 SSE 1021,6 20 0,0
22.07.2019 07:00:00 17,0 15,3 13,4 0 0 5 3 N 1021,3 20 0,0
22.07.2019 06:00:00 15,6 13,8 13,3 2 1 8 4 NE 1021,2 37 0,0
22.07.2019 05:00:00 16,7 14,5 13,8 4 2 8 4 SSE 1021,0 41 0,0
22.07.2019 04:00:00 18,6 15,8 15,2 6 4 10 6 NE 1021,1 45 0,0
22.07.2019 03:00:00 20,3 16,5 16,3 8 4 11 6 NE 1021,3 46 0,0
22.07.2019 02:00:00 21,5 17,7 17,5 8 4 21 11 NE 1021,3 44 0,0
22.07.2019 01:00:00 23,0 19,2 19,7 14 7 22 12 NE 1021,4 43 0,0
22.07.2019 00:00:00 23,0 18,1 18,1 11 6 18 10 NE 1021,5 46 0,0
21.07.2019 23:00:00 22,6 15,4 18,4 6 4 11 6 NE 1021,1 50 0,0
21.07.2019 22:00:00 24,2 15,4 20,1 8 5 11 6 NE 1020,6 56 0,0
21.07.2019 21:00:00 27,2 16,5 22,7 8 4 16 9 WSW 1020,0 59 0,0
21.07.2019 20:00:00 29,7 14,7 27,4 5 3 11 6 S 1019,6 60 0,0
21.07.2019 19:00:00 31,4 14,5 31,0 7 4 18 10 SSE 1019,6 57 0,0
21.07.2019 18:00:00 32,3 14,9 34,9 11 6 25 14 S 1019,6 20 0,0
21.07.2019 17:00:00 33,9 14,9 41,5 11 6 28 15 ESE 1019,6 52 0,0
21.07.2019 16:00:00 33,9 15,4 46,6 13 7 31 17 SSE 1019,9 20 0,0
21.07.2019 15:00:00 34,3 17,5 50,8 11 6 26 14 SSW 1020,0 20 0,0
21.07.2019 14:00:00 33,1 18,8 49,0 16 8 26 14 SW 1020,3 28 0,0
21.07.2019 13:00:00 33,0 19,5 45,3 15 8 28 15 SW 1020,6 20 0,0
21.07.2019 12:00:00 32,3 20,9 43,0 17 9 29 16 SSW 1020,3 45 0,0
21.07.2019 11:00:00 32,1 17,2 39,1 9 5 26 14 E 1020,1 38 0,0
21.07.2019 10:00:00 29,7 19,1 31,7 12 6 26 14 ENE 1020,2 20 0,0
21.07.2019 09:00:00 27,0 19,9 26,0 17 9 34 18 ENE 1020,2 41 0,0
21.07.2019 08:00:00 24,9 20,2 21,4 18 10 30 16 ENE 1020,2 39 0,0
21.07.2019 07:00:00 22,8 17,9 19,6 18 10 28 15 ENE 1020,2 38 0,0
21.07.2019 06:00:00 22,1 16,6 18,6 19 10 28 15 ENE 1020,0 48 0,0
21.07.2019 05:00:00 22,1 16,6 17,0 18 10 27 15 NE 1019,6 48 0,0
21.07.2019 04:00:00 20,7 16,5 17,2 11 6 20 11 NE 1019,6 45 0,0
21.07.2019 03:00:00 20,3 16,7 15,1 9 5 17 9 NE 1019,5 44 0,0
21.07.2019 02:00:00 20,5 17,1 15,1 7 4 10 5 NE 1019,8 42 0,0
21.07.2019 01:00:00 21,3 17,5 16,4 5 3 14 7 NE 1019,8 41 0,0
21.07.2019 00:00:00 22,2 18,6 18,4 8 4 16 9 ENE 1019,7 19 0,0
20.07.2019 23:00:00 23,5 19,6 21,4 9 5 22 12 ENE 1019,5 40 0,0
20.07.2019 22:00:00 23,8 19,3 21,9 11 6 18 10 NE 1019,2 45 0,0
20.07.2019 21:00:00 25,4 19,3 24,1 9 5 25 14 ENE 1018,8 55 0,0
20.07.2019 20:00:00 27,6 16,2 26,5 14 7 30 16 ENE 1018,2 55 0,0
20.07.2019 19:00:00 29,2 17,4 29,0 14 7 36 19 E 1018,1 52 0,0
20.07.2019 18:00:00 30,4 16,0 32,8 16 9 37 20 ENE 1017,9 48 0,0
20.07.2019 17:00:00 31,6 13,4 39,2 17 9 33 18 E 1018,0 47 0,0
20.07.2019 16:00:00 32,2 12,4 47,6 20 11 34 18 NE 1018,0 48 0,0
20.07.2019 15:00:00 32,2 12,9 45,3 19 10 40 22 ENE 1018,1 20 0,0
20.07.2019 14:00:00 32,5 14,1 43,1 18 10 37 20 ENE 1018,1 20 0,0
20.07.2019 13:00:00 31,6 14,7 41,6 19 10 34 19 ENE 1018,2 20 0,0
20.07.2019 12:00:00 30,2 15,5 39,0 15 8 37 20 E 1018,5 39 0,0
20.07.2019 11:00:00 29,7 18,5 37,0 19 11 36 19 E 1018,1 20 0,0
20.07.2019 10:00:00 28,0 19,0 30,6 14 8 37 20 ENE 1018,0 18 0,0
20.07.2019 09:00:00 26,1 20,2 24,2 19 10 35 19 ENE 1017,9 16 0,0
20.07.2019 08:00:00 24,1 20,0 19,8 18 10 30 16 ENE 1017,5 16 0,0
20.07.2019 07:00:00 21,0 18,6 17,6 14 8 22 12 NE 1017,0 15 0,2
20.07.2019 06:00:00 19,6 17,9 14,7 10 5 16 9 ENE 1016,9 15 0,0
20.07.2019 05:00:00 18,9 17,6 12,6 8 4 14 7 NE 1016,7 16 0,0
20.07.2019 04:00:00 16,3 14,5 13,4 6 3 9 5 NNE 1016,7 11 0,0
20.07.2019 03:00:00 16,6 15,0 13,7 4 2 6 4 NNE 1016,6 12 0,0
20.07.2019 02:00:00 17,2 15,5 14,4 3 1 7 4 NNW 1016,8 14 0,0
20.07.2019 01:00:00 18,6 16,7 14,9 7 4 10 5 NNE 1017,1 18 0,0
20.07.2019 00:00:00 19,7 17,5 15,9 5 3 8 4 NNE 1017,1 20 0,0
19.07.2019 23:00:00 20,2 17,4 16,5 5 3 7 4 NNE 1017,0 20 0,0
19.07.2019 22:00:00 21,6 18,2 18,0 4 2 14 7 SE 1016,7 20 0,0
19.07.2019 21:00:00 23,6 19,3 21,9 8 5 22 12 SSW 1016,3 20 0,0
19.07.2019 20:00:00 25,1 19,5 24,9 15 8 29 16 S 1015,8 33 0,0
19.07.2019 19:00:00 28,2 19,2 28,2 18 10 34 19 SSW 1015,2 38 0,0
19.07.2019 18:00:00 32,2 16,9 35,1 17 9 33 18 SSW 1015,0 20 0,0
19.07.2019 17:00:00 32,8 11,3 43,0 19 10 34 18 SW 1015,0 20 0,0
19.07.2019 16:00:00 32,2 12,9 48,4 23 12 35 19 SW 1015,3 37 0,0
19.07.2019 15:00:00 30,9 14,9 46,9 20 11 34 18 SW 1016,0 20 0,0
19.07.2019 14:00:00 29,8 16,2 44,0 22 12 38 21 SW 1016,2 34 0,0
19.07.2019 13:00:00 29,1 18,5 42,1 18 10 35 19 SSW 1016,3 20 0,0
19.07.2019 12:00:00 28,7 18,8 40,3 19 10 35 19 SSW 1016,3 20 0,0
19.07.2019 11:00:00 28,6 18,4 37,4 17 9 33 18 SSW 1016,0 43 0,0
19.07.2019 10:00:00 27,3 17,8 31,1 21 11 32 17 SW 1015,7 43 0,0
19.07.2019 09:00:00 26,5 18,9 23,2 14 8 25 13 SSW 1015,6 19 0,0
19.07.2019 08:00:00 23,7 18,6 17,5 4 2 10 5 N 1015,5 20 0,0
19.07.2019 07:00:00 18,8 16,2 15,4 5 3 13 7 NE 1015,2 19 0,0
19.07.2019 06:00:00 19,0 17,0 15,8 5 3 22 12 NNE 1014,9 16 0,0
19.07.2019 05:00:00 21,4 17,8 17,5 3 2 40 21 E 1014,2 17 0,0
19.07.2019 04:00:00 22,3 18,9 17,3 26 14 38 21 SSW 1014,1 19 0,0
19.07.2019 03:00:00 20,3 18,2 12,7 18 10 28 15 SW 1014,0 12 0,0
19.07.2019 02:00:00 16,3 14,7 12,8 4 2 6 4 NNE 1014,3 8 0,0
19.07.2019 01:00:00 17,6 15,8 13,8 3 1 8 4 NW 1014,3 7 0,0
19.07.2019 00:00:00 19,5 17,6 15,6 2 1 8 4 NNW 1014,1 6 0,0
18.07.2019 23:00:00 21,2 18,8 17,6 3 2 19 10 SSW 1013,7 10 0,0
18.07.2019 22:00:00 23,2 20,5 21,5 11 6 27 15 SSW 1013,2 13 0,0
18.07.2019 21:00:00 24,1 20,2 23,1 20 11 35 19 SW 1012,6 18 0,0
18.07.2019 20:00:00 25,2 20,0 25,2 21 12 34 18 SSW 1012,4 18 0,0
18.07.2019 19:00:00 26,4 19,3 27,0 19 10 37 20 SSW 1011,7 19 0,0
18.07.2019 18:00:00 29,0 18,5 32,4 24 13 42 23 SW 1011,8 30 0,0
18.07.2019 17:00:00 30,4 17,5 40,6 27 15 41 22 SW 1012,0 20 0,0
18.07.2019 16:00:00 30,6 17,3 44,9 26 14 41 22 SW 1012,0 19 0,0
18.07.2019 15:00:00 31,0 14,2 45,1 27 15 43 23 SW 1011,9 32 0,0
18.07.2019 14:00:00 29,9 16,3 43,9 27 14 44 24 SW 1012,2 20 0,0
18.07.2019 13:00:00 29,1 19,1 41,7 21 11 37 20 SSW 1012,5 19 0,0
18.07.2019 12:00:00 28,8 19,4 39,8 21 11 35 19 SSW 1012,6 19 0,0
18.07.2019 11:00:00 27,6 19,1 37,8 21 11 32 17 SSW 1012,6 42 0,0
18.07.2019 10:00:00 27,4 17,8 30,9 14 8 27 15 SW 1012,6 47 0,0
18.07.2019 09:00:00 25,9 18,1 21,8 16 8 23 13 SW 1012,6 39 0,0
18.07.2019 08:00:00 22,7 16,9 14,1 2 1 8 4 E 1012,5 23 0,0
18.07.2019 07:00:00 15,5 12,8 11,2 3 2 8 4 SE 1012,3 49 0,0
18.07.2019 06:00:00 14,8 11,9 11,5 7 4 11 6 NNE 1012,0 43 0,0
18.07.2019 05:00:00 14,9 11,9 12,4 4 2 9 5 NE 1011,9 49 0,0
18.07.2019 04:00:00 15,7 12,4 11,9 6 4 10 5 NNE 1011,9 48 0,0
18.07.2019 03:00:00 15,5 12,1 11,8 5 3 9 5 NNE 1011,7 54 0,0
18.07.2019 02:00:00 16,7 12,6 13,0 4 2 13 7 N 1012,0 56 0,0
18.07.2019 01:00:00 16,9 12,6 13,7 4 2 14 8 NE 1012,3 56 0,0
18.07.2019 00:00:00 18,2 13,3 14,3 5 3 10 5 NE 1012,6 59 0,0
17.07.2019 23:00:00 21,7 14,1 17,1 7 4 33 18 N 1012,5 60 0,0
17.07.2019 22:00:00 24,0 14,1 21,0 19 10 38 20 W 1012,4 53 0,0
17.07.2019 21:00:00 24,9 16,6 22,5 21 11 26 14 SW 1012,2 59 0,0
17.07.2019 20:00:00 28,7 7,8 26,1 9 5 25 13 WSW 1012,1 60 0,0
17.07.2019 19:00:00 27,9 15,5 28,0 16 9 36 20 WSW 1012,2 56 0,0
17.07.2019 18:00:00 29,8 14,4 32,5 27 15 42 23 WSW 1012,3 58 0,0
17.07.2019 17:00:00 29,9 14,0 36,5 31 17 46 25 WSW 1012,7 51 0,0
17.07.2019 16:00:00 29,6 13,4 38,9 34 18 48 26 WSW 1012,9 31 0,0
17.07.2019 15:00:00 31,3 12,1 49,9 29 15 48 26 WSW 1013,0 20 0,0
17.07.2019 14:00:00 29,5 17,7 46,6 32 17 46 25 WSW 1013,1 36 0,0
17.07.2019 13:00:00 29,3 13,9 42,4 33 18 47 25 SW 1013,6 44 0,0
17.07.2019 12:00:00 28,3 17,8 40,8 29 16 41 22 SW 1013,9 41 0,0
17.07.2019 11:00:00 29,0 15,9 38,3 16 9 29 16 SSW 1014,1 34 0,0
17.07.2019 10:00:00 28,3 15,9 31,4 10 5 18 10 SW 1014,2 37 0,0
17.07.2019 09:00:00 26,5 15,5 21,7 7 4 16 9 E 1014,3 43 0,2
17.07.2019 08:00:00 21,8 16,5 13,4 4 2 10 5 SE 1014,1 39 0,0
17.07.2019 07:00:00 14,6 13,3 10,5 0 0 10 5 N 1013,9 12 0,0
17.07.2019 06:00:00 13,6 12,2 10,3 5 3 9 5 NE 1013,9 14 0,0
17.07.2019 05:00:00 13,8 12,0 10,6 7 4 9 5 NE 1014,0 13 0,0
17.07.2019 04:00:00 14,2 12,4 11,2 5 3 8 4 NE 1014,0 10 0,0
17.07.2019 03:00:00 14,9 12,8 12,0 5 3 9 5 NNE 1014,3 14 0,0
17.07.2019 02:00:00 15,3 13,3 12,2 4 2 7 4 N 1014,9 11 0,0
17.07.2019 01:00:00 16,4 13,9 13,1 4 2 5 3 N 1014,8 20 0,0
17.07.2019 00:00:00 18,0 14,5 14,3 3 2 9 5 N 1014,9 40 0,0
16.07.2019 23:00:00 18,5 14,4 15,1 4 2 7 4 E 1014,7 42 0,0
16.07.2019 22:00:00 21,9 15,3 17,0 7 4 10 5 WNW 1014,5 39 0,0
16.07.2019 21:00:00 23,0 17,9 19,9 4 2 18 10 S 1013,9 20 0,0
16.07.2019 20:00:00 25,2 17,4 24,6 13 7 24 13 S 1013,6 34 0,0
16.07.2019 19:00:00 27,6 14,6 27,6 18 10 34 19 SSW 1013,1 44 0,0
16.07.2019 18:00:00 29,1 13,7 33,6 19 10 37 20 SW 1013,2 41 0,0
16.07.2019 17:00:00 28,9 15,1 33,2 21 11 37 20 WSW 1013,4 46 0,0

tt = Température de l'air
td = dewpoint
tt 5cm = Température de l'air 5cm
ff = Vitesse du vent
fx = gusts
dd = Direction du vent
ppp = reduced air pressure
vv = visibility
rr = Quantités de précipitations

stations d'obs. à proximité